Tracking 19909 objects as of 21-Oct-2019
HD Live streaming from Space Station
objects crossing your sky now

SL-8 DEB

Track SL-8 DEB now!
10-day predictions


NORAD ID: 25085
Int'l Code: 1991-009CX
Perigee: 1,440.7 km
Apogee: 1,731.7 km
Inclination: 74.1 °
Period: 117.7 minutes
Semi major axis: 7957 km
RCS: 0.0159 m2 (small)
Launch date: February 12, 1991
Source: Commonwealth of Independent States (former USSR) (CIS)
Launch site: PLESETSK MISSILE AND SPACE COMPLEX (PKMTR)

Note: This is SATELLITE DEBRIS
aabbcc
Your satellite tracking list
Your tracking list is empty




NASA's NSSDC Master Catalog

Two Line Element Set (TLE):
1 25085U 91009CX  19293.29226622  .00000130  00000-0  12745-2 0  9999
2 25085  74.1122  31.6620 0182890  18.3384  10.8406 12.23099828113954
Source of the keplerian elements: AFSPC